Change the Weather History Date:

Friday, September 20, 2013

  Actual Average Record
Temperature  
Mean Temperature 63 °F -  
Max Temperature 69 °F 68 °F 90 °F (1940)
Min Temperature 57 °F 49 °F 30 °F (1956)
Degree Days  
Heating Degree Days 2    
Growing Degree Days 13 (Base 50)    
Moisture  
Dew Point 57 °F    
Average Humidity 79    
Maximum Humidity 94    
Minimum Humidity 59    
Precipitation  
Precipitation 0.04 in - - ()
Sea Level Pressure  
Sea Level Pressure 29.77 in    
Wind  
Wind Speed 8 mph (WSW)    
Max Wind Speed 18 mph    
Max Gust Speed 24 mph    
Visibility 10 miles    
Events Rain    
Averages and records for this station are not official NWS values.
T = Trace of Precipitation, MM = Missing Value Source: NWS Daily Summary

Daily Weather History Graph

Daily Weather History Graph

Search for Another Location

Airport or City:

Trip Planner

Search our weather history database for the weather conditions in past years. The results will help you decide how hot, cold, wet, or windy it might be!

Date:

Astronomy

Sep. 20, 2013 Rise Set
Actual Time 6:37 AM CDT 6:53 PM CDT
Civil Twilight 6:09 AM CDT 7:21 PM CDT
Nautical Twilight 5:35 AM CDT 7:55 PM CDT
Astronomical Twilight 5:01 AM CDT 8:29 PM CDT
Moon 7:22 PM CDT (9/20) 7:55 AM CDT (9/20)
Length of Visible Light 13h 12m
Length of Day
12h 15m
Full, 98% of the Moon is Illuminated
Sep 20
Full
Sep 26
Last Quarter
Oct 4
New
Oct 11
First Quarter
Oct 18
Full

Hourly Weather History & Observations

Time (CDT) Temp. Dew Point Humidity Pressure Visibility Wind Dir Wind Speed Gust Speed Precip Events Conditions
12:15 AM 64.4 °F 62.6 °F 94% 29.75 in 10.0 mi WSW 3.5 mph - N/A   Clear
12:35 AM 64.4 °F 62.6 °F 94% 29.76 in 10.0 mi WSW 5.8 mph - N/A   Clear
12:55 AM 64.4 °F 62.6 °F 94% 29.76 in 10.0 mi SSW 4.6 mph - N/A   Clear
1:15 AM 64.4 °F 62.6 °F 94% 29.77 in 10.0 mi SSW 6.9 mph - N/A   Clear
1:35 AM 64.4 °F 62.6 °F 94% 29.77 in 10.0 mi SSW 4.6 mph - N/A   Clear
1:55 AM 64.4 °F 60.8 °F 88% 29.77 in 10.0 mi SW 3.5 mph - N/A   Clear
2:15 AM 64.4 °F 60.8 °F 88% 29.76 in 10.0 mi SSW 4.6 mph - N/A   Scattered Clouds
2:35 AM 64.4 °F 60.8 °F 88% 29.76 in 10.0 mi SW 5.8 mph - N/A   Scattered Clouds
2:55 AM 64.4 °F 62.6 °F 94% 29.75 in 10.0 mi WSW 6.9 mph - N/A   Overcast
3:15 AM 64.4 °F 62.6 °F 94% 29.73 in 10.0 mi WSW 6.9 mph - N/A   Mostly Cloudy
3:35 AM 64.4 °F 62.6 °F 94% 29.72 in 10.0 mi West 6.9 mph - N/A   Light Drizzle
3:55 AM 64.4 °F 62.6 °F 94% 29.71 in 10.0 mi West 9.2 mph - N/A   Overcast
4:15 AM 64.4 °F 62.6 °F 94% 29.73 in 10.0 mi SSW 8.1 mph - N/A   Overcast
4:35 AM 64.4 °F 62.6 °F 94% 29.73 in 10.0 mi SW 5.8 mph - N/A   Overcast
4:55 AM 64.4 °F 62.6 °F 94% 29.71 in 10.0 mi WSW 4.6 mph - N/A   Overcast
5:15 AM 64.4 °F 62.6 °F 94% 29.73 in 10.0 mi SW 9.2 mph - N/A   Overcast
5:35 AM 64.4 °F 62.6 °F 94% 29.73 in 10.0 mi SW 5.8 mph - N/A   Overcast
5:55 AM 64.4 °F 62.6 °F 94% 29.75 in 10.0 mi SSW 9.2 mph - N/A   Overcast
6:15 AM 64.4 °F 62.6 °F 94% 29.75 in 10.0 mi SSW 5.8 mph - N/A   Overcast
7:15 AM 64.4 °F 62.6 °F 94% 29.77 in 2.0 mi SW 4.6 mph - 0.01 in   Heavy Drizzle
7:35 AM 64.4 °F 62.6 °F 94% 29.76 in 2.5 mi SW 5.8 mph - 0.03 in Rain Heavy Rain
7:55 AM 64.4 °F 62.6 °F 94% 29.76 in 7.0 mi SW 8.1 mph - 0.03 in   Overcast
8:15 AM 64.4 °F 62.6 °F 94% 29.76 in 10.0 mi SW 5.8 mph - N/A   Overcast
8:55 AM 66.2 °F 62.6 °F 88% 29.77 in 10.0 mi SW 8.1 mph - 0.01 in   Overcast
9:15 AM 66.2 °F 62.6 °F 88% 29.78 in 7.0 mi SW 6.9 mph - N/A   Overcast
9:55 AM 68.0 °F 62.6 °F 83% 29.78 in 10.0 mi West 11.5 mph - N/A   Mostly Cloudy
10:15 AM 68.0 °F 62.6 °F 83% 29.78 in 10.0 mi West 10.4 mph - N/A   Mostly Cloudy
10:35 AM 68.0 °F 60.8 °F 78% 29.78 in 10.0 mi West 9.2 mph 17.3 mph N/A   Mostly Cloudy
10:55 AM 68.0 °F 60.8 °F 78% 29.78 in 10.0 mi West 12.7 mph 17.3 mph N/A   Scattered Clouds
11:15 AM 69.8 °F 60.8 °F 73% 29.78 in 10.0 mi West 12.7 mph 18.4 mph N/A   Scattered Clouds
11:35 AM 68.0 °F 59.0 °F 73% 29.77 in 10.0 mi West 11.5 mph 20.7 mph N/A   Scattered Clouds
11:55 AM 69.8 °F 59.0 °F 68% 29.77 in 10.0 mi West 12.7 mph 17.3 mph N/A   Scattered Clouds
12:15 PM 69.8 °F 59.0 °F 68% 29.76 in 10.0 mi West 11.5 mph 16.1 mph N/A   Scattered Clouds
12:35 PM 69.8 °F 57.2 °F 64% 29.76 in 10.0 mi West 12.7 mph 17.3 mph N/A   Clear
12:55 PM 69.8 °F 57.2 °F 64% 29.76 in 10.0 mi WSW 12.7 mph 18.4 mph N/A   Scattered Clouds
1:15 PM 69.8 °F 57.2 °F 64% 29.76 in 10.0 mi West 13.8 mph 20.7 mph N/A   Scattered Clouds
1:35 PM 69.8 °F 57.2 °F 64% 29.75 in 10.0 mi West 10.4 mph 16.1 mph N/A   Scattered Clouds
1:55 PM 69.8 °F 55.4 °F 60% 29.75 in 10.0 mi WSW 12.7 mph 18.4 mph N/A   Scattered Clouds
2:15 PM 69.8 °F 57.2 °F 64% 29.75 in 10.0 mi WSW 12.7 mph 18.4 mph N/A   Scattered Clouds
2:35 PM 69.8 °F 57.2 °F 64% 29.75 in 10.0 mi WSW 12.7 mph 19.6 mph N/A   Scattered Clouds
2:55 PM 69.8 °F 55.4 °F 60% 29.75 in 10.0 mi West 15.0 mph 23.0 mph N/A   Mostly Cloudy
3:15 PM 66.2 °F 55.4 °F 68% 29.76 in 10.0 mi West 18.4 mph 24.2 mph N/A   Mostly Cloudy
3:35 PM 64.4 °F 53.6 °F 68% 29.77 in 10.0 mi WNW 13.8 mph - N/A   Scattered Clouds
3:55 PM 64.4 °F 53.6 °F 68% 29.76 in 10.0 mi West 16.1 mph 23.0 mph N/A   Clear
4:15 PM 64.4 °F 51.8 °F 64% 29.77 in 10.0 mi West 13.8 mph 21.9 mph N/A   Scattered Clouds
4:35 PM 64.4 °F 51.8 °F 64% 29.78 in 10.0 mi West 12.7 mph 21.9 mph N/A   Scattered Clouds
4:55 PM 64.4 °F 51.8 °F 64% 29.78 in 10.0 mi WSW 11.5 mph 16.1 mph N/A   Scattered Clouds
5:15 PM 64.4 °F 51.8 °F 64% 29.77 in 10.0 mi West 13.8 mph - N/A   Scattered Clouds
5:35 PM 64.4 °F 51.8 °F 64% 29.77 in 10.0 mi West 15.0 mph - N/A   Clear
5:55 PM 64.4 °F 50.0 °F 59% 29.77 in 10.0 mi West 12.7 mph - N/A   Scattered Clouds
6:15 PM 62.6 °F 50.0 °F 63% 29.78 in 10.0 mi West 9.2 mph - N/A   Scattered Clouds
6:35 PM 62.6 °F 50.0 °F 63% 29.78 in 10.0 mi WSW 8.1 mph - N/A   Scattered Clouds
6:55 PM 60.8 °F 51.8 °F 72% 29.78 in 10.0 mi WSW 5.8 mph - N/A   Mostly Cloudy
7:15 PM 60.8 °F 51.8 °F 72% 29.78 in 10.0 mi WSW 5.8 mph - N/A   Scattered Clouds
7:55 PM 59.0 °F 51.8 °F 77% 29.79 in 10.0 mi WSW 5.8 mph - N/A   Clear
8:15 PM 59.0 °F 51.8 °F 77% 29.80 in 10.0 mi West 9.2 mph - N/A   Clear
8:35 PM 59.0 °F 50.0 °F 72% 29.80 in 10.0 mi West 9.2 mph - N/A   Clear
8:55 PM 59.0 °F 50.0 °F 72% 29.80 in 10.0 mi West 8.1 mph - N/A   Clear
9:15 PM 57.2 °F 50.0 °F 77% 29.79 in 10.0 mi West 9.2 mph - N/A   Clear
9:35 PM 59.0 °F 50.0 °F 72% 29.79 in 10.0 mi West 11.5 mph 17.3 mph N/A   Clear
9:55 PM 57.2 °F 50.0 °F 77% 29.80 in 10.0 mi West 11.5 mph 23.0 mph N/A   Clear
10:15 PM 57.2 °F 51.8 °F 82% 29.80 in 10.0 mi West 11.5 mph - N/A   Scattered Clouds
10:35 PM 57.2 °F 51.8 °F 82% 29.80 in 10.0 mi West 12.7 mph - N/A   Mostly Cloudy
10:55 PM 57.2 °F 51.8 °F 82% 29.80 in 10.0 mi WNW 12.7 mph 19.6 mph N/A   Overcast
11:15 PM 57.2 °F 51.8 °F 82% 29.80 in 10.0 mi West 11.5 mph - N/A   Overcast
11:35 PM 57.2 °F 50.0 °F 77% 29.80 in 10.0 mi West 13.8 mph 19.6 mph N/A   Mostly Cloudy
11:55 PM 57.2 °F 50.0 °F 77% 29.80 in 10.0 mi West 13.8 mph 18.4 mph N/A   Overcast